Location: Asheville, NC
(35.6000°N, 82.5500°W)
Time: 13:52:13
(UTC-04:00)

UWE-3 - Visible Passes

Search period start: 21 September 2018 00:00
Search period end: 01 October 2018 00:00
Orbit: 586 x 683 km, 97.6° (Epoch: 20 September)

Date Brightness Start Highest point End Pass type
(mag) Time Alt. Az. Time Alt. Az. Time Alt. Az.
21 Sep ? 20:45:25 10° SW 20:48:47 20° W 20:52:11 10° NW visible
22 Sep ? 21:09:32 10° WSW 21:10:49 11° W 21:12:08 10° WNW visible
23 Sep ? 19:51:14 10° S 19:55:53 76° WSW 20:00:33 10° NNW visible
24 Sep ? 20:13:21 10° S 20:17:45 42° W 20:22:11 10° NNW visible
25 Sep ? 20:35:56 10° SSW 20:39:42 24° W 20:43:28 10° NW visible
26 Sep ? 20:59:18 10° WSW 21:01:42 14° W 21:04:06 10° WNW visible
27 Sep ? 19:42:12 10° SSE 19:46:52 87° ENE 19:51:31 10° N visible
28 Sep ? 20:04:10 10° S 20:08:42 52° W 20:13:14 10° NNW visible
29 Sep ? 20:26:33 10° SSW 20:30:37 30° W 20:34:40 10° NW visible
30 Sep ? 20:49:32 10° SW 20:52:36 17° W 20:55:37 10° NW visible
